Location: Newark
(54.6833°N, 25.2833°E)
Time: 12:07:02
(UTC+00:00)

A-11 Canister half - Visible Passes

Search period start: 21 January 2021 00:00
Search period end: 31 January 2021 00:00
Orbit: 1524 x 1684 km, 47.3° (Epoch: 20 January)

Date Brightness Start Highest point End Pass type
(mag) Time Alt. Az. Time Alt. Az. Time Alt. Az.
21 Jan 9.5 15:38:06 10° WSW 15:47:12 54° S 15:56:37 10° E visible
21 Jan 9.5 17:42:10 10° W 17:51:20 52° SSW 17:55:09 36° SE visible
21 Jan 10.2 19:46:54 10° W 19:53:27 29° SW 19:53:27 29° SW visible
22 Jan 9.6 15:16:31 10° WSW 15:25:35 54° SSE 15:34:56 10° E visible
22 Jan 9.5 17:20:33 10° W 17:29:43 53° SSW 17:34:51 29° SE visible
22 Jan 10.1 19:25:14 10° W 19:33:10 32° SW 19:33:10 32° SW visible
23 Jan 9.5 16:58:56 10° W 17:08:05 53° SSW 17:14:37 22° SE visible
23 Jan 10.0 19:03:35 10° W 19:11:46 33° SW 19:12:56 32° SSW visible
24 Jan 9.5 16:37:19 10° W 16:46:27 54° S 16:54:26 15° ESE visible
24 Jan 10.0 18:41:56 10° W 18:50:11 34° SW 18:52:46 30° S visible
24 Jan 11.1 20:49:42 10° WSW 20:51:05 11° WSW 20:51:05 11° WSW visible
25 Jan 9.6 16:15:43 10° W 16:24:50 54° S 16:34:15 10° ESE visible
25 Jan 10.1 18:20:16 10° W 18:28:35 35° SSW 18:32:39 25° S visible
25 Jan 11.0 20:27:35 10° WSW 20:30:59 13° SW 20:30:59 13° SW visible
26 Jan 9.6 15:54:06 10° W 16:03:12 55° S 16:12:37 10° ESE visible
26 Jan 10.1 17:58:37 10° W 18:07:00 36° SSW 18:12:38 20° SSE visible
26 Jan 10.9 20:05:35 10° W 20:09:43 13° SW 20:10:58 13° SW visible
27 Jan 9.6 15:32:29 10° W 15:41:35 55° S 15:50:59 10° ESE visible
27 Jan 10.1 17:36:59 10° W 17:45:24 37° SSW 17:52:43 14° SSE visible
27 Jan 10.9 19:43:38 10° W 19:48:11 14° SW 19:51:03 12° SW visible
28 Jan 9.7 15:10:53 10° W 15:19:57 55° S 15:29:20 10° ESE visible
28 Jan 10.1 17:15:20 10° W 17:23:48 38° SSW 17:32:30 10° SSE visible
28 Jan 11.0 19:21:44 10° W 19:26:38 15° SW 19:31:16 11° SSW visible
29 Jan 10.1 16:53:42 10° W 17:02:12 39° SSW 17:10:57 10° SE visible
29 Jan 11.0 18:59:53 10° W 19:05:05 16° SW 19:10:22 10° SSW visible
30 Jan 10.1 16:32:04 10° W 16:40:36 40° SSW 16:49:24 10° SE visible
30 Jan 11.0 18:38:04 10° W 18:43:33 17° SW 18:49:07 10° SSW visible
